Location: Chippewa Lake
(41.0698°N, 81.9010°W)
Time: 06:41:32
(UTC+00:00)

Cosmos 2084 - Pass Details

Date: 26 September 2021
Orbit: 528 x 653 km, 62.8° (Epoch: 23 October)

Event Time Altitude Azimuth Distance (km) Brightness Sun altitude
Exits shadow 09:43:52 14° 185° (S) 1,544 5.4 -18.6°
Maximum altitude 09:46:58 39° 119° (ESE) 804 4.5 -18.1°
Drops below altitude 10° 09:50:45 10° 50° (NE) 1,810 6.9 -17.4°
Sets 09:53:05 0° 43° (NE) 2,723 7.8 -17.0°
